When you browse on this site, cookies collect data to enhance your experience and personalize the content and advertising you see.
Visit our Privacy Policy to learn more. By continuing to use the site, you agree to this use of cookies and data.
  • In Germany
  • List of Countries
  • For 7 days
  • Water Temperature
  • Weather Map
  • Weather Widgets
  • user-avatar
    Login

    Hourly Weather Ily

    Today, 27 May, Wednesday

    Time Temperature Precipitation Wind Pressure Humidity
    00:00 +9°C° 0 mm 3 mps 763 mmHg 94%
    01:00 +9°C° 0 mm 3 mps 764 mmHg 95%
    02:00 +8°C° 0 mm 3 mps 764 mmHg 95%
    03:00 +8°C° 0 mm 3 mps 763 mmHg 95%
    04:00 +8°C° 0 mm 3 mps 763 mmHg 94%
    05:00 +9°C° 0 mm 3 mps 763 mmHg 89%
    06:00 +11°C° 0 mm 3 mps 764 mmHg 83%
    07:00 +13°C° 0 mm 3 mps 764 mmHg 78%
    08:00 +14°C° 0 mm 4 mps 763 mmHg 71%
    09:00 +17°C° 0 mm 4 mps 763 mmHg 65%
    10:00 +18°C° 0 mm 4 mps 763 mmHg 59%
    11:00 +19°C° 0.1 mm 5 mps 763 mmHg 57%
    12:00 +19°C° 0.1 mm 5 mps 762 mmHg 55%
    13:00 +20°C° 0.1 mm 5 mps 762 mmHg 53%
    14:00 +20°C° 0 mm 5 mps 762 mmHg 55%
    15:00 +19°C° 0 mm 5 mps 761 mmHg 56%
    16:00 +19°C° 0 mm 5 mps 761 mmHg 58%
    17:00 +18°C° 0 mm 4 mps 761 mmHg 63%
    18:00 +16°C° 0 mm 3 mps 761 mmHg 69%
    19:00 +15°C° 0 mm 2 mps 761 mmHg 75%
    20:00 +14°C° 0 mm 2 mps 761 mmHg 80%
    21:00 +13°C° 0 mm 2 mps 761 mmHg 84%
    22:00 +10°C° 0 mm 2 mps 761 mmHg 89%
    23:00 +10°C° 0 mm 2 mps 761 mmHg 91%

    Tomorrow, 28 May, Thursday

    Time Temperature Precipitation Wind Pressure Humidity
    00:00 +9°C° 0 mm 2 mps 761 mmHg 92%
    01:00 +9°C° 0 mm 2 mps 760 mmHg 94%
    02:00 +10°C° 0 mm 1 mps 760 mmHg 93%
    03:00 +9°C° 0 mm 1 mps 760 mmHg 93%
    04:00 +9°C° 0 mm 1 mps 759 mmHg 93%
    05:00 +11°C° 0 mm 1 mps 759 mmHg 87%
    06:00 +13°C° 0 mm 2 mps 759 mmHg 80%
    07:00 +14°C° 0 mm 2 mps 759 mmHg 74%
    08:00 +15°C° 0.1 mm 2 mps 759 mmHg 71%
    09:00 +16°C° 0.1 mm 2 mps 759 mmHg 67%
    10:00 +18°C° 0.1 mm 3 mps 759 mmHg 64%
    11:00 +18°C° 0.4 mm 3 mps 758 mmHg 66%
    12:00 +18°C° 0.4 mm 4 mps 758 mmHg 68%
    13:00 +17°C° 0.4 mm 5 mps 758 mmHg 69%
    14:00 +17°C° 0.1 mm 5 mps 757 mmHg 68%
    15:00 +17°C° 0.1 mm 5 mps 757 mmHg 67%
    16:00 +18°C° 0.1 mm 4 mps 757 mmHg 66%
    17:00 +17°C° 0.1 mm 4 mps 757 mmHg 71%
    18:00 +16°C° 0.1 mm 3 mps 757 mmHg 77%
    19:00 +14°C° 0.1 mm 3 mps 757 mmHg 83%
    20:00 +13°C° 0 mm 3 mps 757 mmHg 86%
    21:00 +12°C° 0 mm 3 mps 757 mmHg 89%
    22:00 +11°C° 0 mm 4 mps 757 mmHg 93%
    23:00 +11°C° 0 mm 4 mps 757 mmHg 94%

    Day after tomorrow, 29 May, Friday

    Time Temperature Precipitation Wind Pressure Humidity
    00:00 +10°C° 0 mm 4 mps 757 mmHg 94%
    01:00 +10°C° 0 mm 4 mps 757 mmHg 95%
    02:00 +8°C° 0 mm 4 mps 757 mmHg 94%
    03:00 +8°C° 0 mm 5 mps 757 mmHg 92%
    04:00 +7°C° 0 mm 5 mps 757 mmHg 91%
    05:00 +8°C° 0 mm 5 mps 757 mmHg 86%
    06:00 +9°C° 0 mm 6 mps 757 mmHg 82%
    07:00 +10°C° 0 mm 6 mps 757 mmHg 78%
    08:00 +11°C° 0 mm 6 mps 756 mmHg 72%
    09:00 +14°C° 0 mm 7 mps 756 mmHg 67%
    10:00 +16°C° 0 mm 8 mps 756 mmHg 61%
    11:00 +16°C° 0 mm 8 mps 756 mmHg 59%
    12:00 +17°C° 0 mm 8 mps 755 mmHg 58%
    13:00 +17°C° 0 mm 8 mps 755 mmHg 56%
    14:00 +17°C° 0.1 mm 8 mps 755 mmHg 58%
    15:00 +16°C° 0.1 mm 8 mps 755 mmHg 59%
    16:00 +16°C° 0.1 mm 7 mps 755 mmHg 61%
    17:00 +15°C° 0 mm 6 mps 755 mmHg 66%
    18:00 +14°C° 0 mm 6 mps 754 mmHg 71%
    19:00 +13°C° 0 mm 5 mps 754 mmHg 76%
    20:00 +12°C° 0 mm 5 mps 754 mmHg 77%
    21:00 +10°C° 0 mm 5 mps 754 mmHg 77%
    22:00 +10°C° 0 mm 6 mps 754 mmHg 78%
    23:00 +9°C° 0.1 mm 6 mps 754 mmHg 79%

    30 May, Saturday

    Time Temperature Precipitation Wind Pressure Humidity
    00:00 +9°C° 0.1 mm 6 mps 754 mmHg 79%
    01:00 +8°C° 0.1 mm 6 mps 753 mmHg 80%
    02:00 +8°C° 0.5 mm 6 mps 753 mmHg 83%
    03:00 +8°C° 0.5 mm 6 mps 753 mmHg 86%
    04:00 +7°C° 0.5 mm 6 mps 753 mmHg 90%
    05:00 +7°C° 0.7 mm 6 mps 752 mmHg 91%
    06:00 +7°C° 0.7 mm 6 mps 752 mmHg 92%
    07:00 +7°C° 0.7 mm 6 mps 752 mmHg 93%
    08:00 +8°C° 0.6 mm 6 mps 752 mmHg 93%
    09:00 +8°C° 0.6 mm 6 mps 752 mmHg 93%
    10:00 +8°C° 0.6 mm 6 mps 752 mmHg 93%
    11:00 +8°C° 0.1 mm 5 mps 752 mmHg 93%
    12:00 +9°C° 0.1 mm 5 mps 752 mmHg 92%
    13:00 +9°C° 0.1 mm 5 mps 752 mmHg 92%
    14:00 +9°C° 0 mm 5 mps 752 mmHg 92%
    15:00 +10°C° 0 mm 5 mps 752 mmHg 91%
    16:00 +11°C° 0 mm 4 mps 751 mmHg 91%
    17:00 +11°C° 0 mm 4 mps 751 mmHg 92%
    18:00 +11°C° 0 mm 4 mps 751 mmHg 93%
    19:00 +11°C° 0 mm 4 mps 751 mmHg 93%
    20:00 +11°C° 0.1 mm 4 mps 751 mmHg 95%
    21:00 +11°C° 0.1 mm 4 mps 751 mmHg 96%
    22:00 +12°C° 0.1 mm 4 mps 751 mmHg 97%
    23:00 +12°C° 0.4 mm 4 mps 750 mmHg 97%

    31 May, Sunday

    Time Temperature Precipitation Wind Pressure Humidity
    00:00 +12°C° 0.4 mm 4 mps 750 mmHg 98%
    01:00 +13°C° 0.4 mm 4 mps 750 mmHg 98%
    02:00 +13°C° 0.9 mm 3 mps 750 mmHg 98%
    03:00 +13°C° 0.9 mm 3 mps 749 mmHg 98%
    04:00 +14°C° 0.9 mm 2 mps 749 mmHg 98%
    05:00 +14°C° 0.1 mm 3 mps 749 mmHg 97%
    06:00 +14°C° 0.1 mm 4 mps 749 mmHg 95%
    07:00 +15°C° 0.1 mm 5 mps 749 mmHg 94%
    08:00 +15°C° 0 mm 5 mps 750 mmHg 92%
    09:00 +16°C° 0 mm 6 mps 750 mmHg 89%
    10:00 +16°C° 0 mm 6 mps 750 mmHg 87%
    11:00 +17°C° 0 mm 6 mps 750 mmHg 84%
    12:00 +17°C° 0 mm 6 mps 751 mmHg 81%
    13:00 +18°C° 0 mm 7 mps 751 mmHg 79%
    14:00 +17°C° 0 mm 6 mps 751 mmHg 79%
    15:00 +17°C° 0 mm 6 mps 751 mmHg 80%
    16:00 +17°C° 0 mm 6 mps 752 mmHg 80%
    17:00 +17°C° 0 mm 5 mps 752 mmHg 81%
    18:00 +17°C° 0 mm 5 mps 752 mmHg 82%
    19:00 +17°C° 0 mm 4 mps 752 mmHg 83%
    20:00 +17°C° 0 mm 4 mps 753 mmHg 85%
    21:00 +15°C° 0 mm 4 mps 753 mmHg 87%
    22:00 +14°C° 0 mm 4 mps 754 mmHg 90%
    23:00 +14°C° 0 mm 4 mps 754 mmHg 90%

    1 June, Monday

    Time Temperature Precipitation Wind Pressure Humidity
    00:00 +13°C° 0 mm 4 mps 754 mmHg 90%
    01:00 +13°C° 0 mm 4 mps 754 mmHg 90%
    02:00 +12°C° 0 mm 4 mps 754 mmHg 89%
    03:00 +12°C° 0 mm 4 mps 755 mmHg 89%
    04:00 +11°C° 0 mm 4 mps 755 mmHg 88%
    05:00 +12°C° 0 mm 4 mps 755 mmHg 84%
    06:00 +14°C° 0 mm 4 mps 755 mmHg 79%
    07:00 +15°C° 0 mm 5 mps 756 mmHg 74%
    08:00 +16°C° 0 mm 5 mps 756 mmHg 69%
    09:00 +19°C° 0 mm 6 mps 756 mmHg 64%
    10:00 +20°C° 0 mm 6 mps 756 mmHg 59%
    11:00 +20°C° 0 mm 6 mps 756 mmHg 58%
    12:00 +21°C° 0 mm 6 mps 756 mmHg 56%
    13:00 +21°C° 0 mm 6 mps 756 mmHg 55%
    14:00 +21°C° 0 mm 6 mps 756 mmHg 56%
    15:00 +21°C° 0 mm 5 mps 755 mmHg 57%
    16:00 +21°C° 0 mm 5 mps 755 mmHg 57%
    17:00 +19°C° 0 mm 5 mps 755 mmHg 63%
    18:00 +18°C° 0 mm 4 mps 756 mmHg 69%
    19:00 +17°C° 0 mm 3 mps 756 mmHg 75%
    20:00 +14°C° 0 mm 3 mps 756 mmHg 78%
    21:00 +13°C° 0 mm 3 mps 756 mmHg 81%
    22:00 +12°C° 0 mm 3 mps 757 mmHg 84%
    23:00 +12°C° 0 mm 3 mps 757 mmHg 85%
    Show more